OBJECT AD, 57193

Orbit data source: Space-Track

You're viewing an uncataloged RSO

Recently launched and/or uncataloged RSOs may have evolving metadata. Metadata may include the following, but is not limited to: Owner, Manufacturer, Bus, Motor, and Mission.

OBJECT AD, 57193 is a satellite in SSO that was launched on Tue, 27 Jun 2023 UTC via a SOYUZ-2-1B launch vehicle from the Vostochny Cosmodrome (VOSTO). Unknown objects in Earth's orbit typically refer to objects detected orbiting the Earth but have not yet been identified or cataloged. These objects could be anything from previously untracked satellites, spent rocket stages, debris from satellite collisions, or even natural meteoroids temporarily captured by Earth's gravity.

Loading next visibility...
Identifier
57193, 2023-091AD
Orbit
SSO
Country
Flag of TBDTBD
Related business
Manufacturer
Sputniks
Mission
Operational Commercial Technology
Bus & Motor
CUBESAT 3U?, Unknown motor
Mass
3 kg wet, 3 kg dry
Launch date (UTC)
2023-06-27 (3 years ago)
Launch vehicle
SOYUZ-2-1B
Launch site
Vostochny Cosmodrome (VOSTO)
Object type
Unknown
Shape & HBR
Box, 0.2 m
Radar Cross Section
0.035 m², Medium (>0.1 m² and < 1m²)

Expand to show TLE details & history
Last TLE update: 8 hours ago

TLE from 8 hours ago
0 OBJECT AD
1 57193U 23091AD  26256.91161293  .00012345  00000-0  37380-3 0  9992
2 57193  97.4968 323.7023 0010852 138.2371 221.9702 15.34260780178040
Epoch: 2026-09-13T21:52Z
TLE epoch observation values (Epoch: 2026-09-13T21:52:43.357Z)
Latitude
0.00002°
Longitude
2.62218°
Altitude
471.749 km
Speed
7.627 km/s
True Right ascension
21h 34m 48s
True Declination
0° 00' 00"
Sunlit
Object was in full shadow at epoch
Visualization orbit readout
Latitude
Unknown
Longitude
Unknown
Altitude
Unknown
Speed
Unknown
Apparent Right ascension
Unknown
Apparent Declination
Unknown
Sunlit
N/A
Visualization observer readout
Local Sidereal Time
22:40:21
Azimuth
Unknown
Elevation
Unknown
Doppler factor
Unknown
Orbital elements
Apogee altitude
467.489 km
Perigee altitude
452.647 km
Semi-major axis
6,838.205 km
Eccentricity
0.00109
Inclination
97.4968°
RAAN
323.7023°
Arg. of periapsis
138.2371°
True anomaly
221.88712°
Mean anomaly
221.9702°
Eccentric anomaly
221.92865°
Mean motion
3.83822 °/min
Orbital period
93.79 mins
BSTAR
0.0003738
Loading maneuver chart data...
Computing Atmospheric mass density...
Loading historical data...
Loading historical data...
Loading historical data...
Loading historical data...
Loading historical data...
Loading historical data...
Loading historical data...

Documentation

Showing up to 5 results
|